IRNSS-1A

Last updated on Thu Nov 21 2024 00:02:42 GMT+0000 (Coordinated Universal Time)

1 39199U 13034A 24324.87739656 .00000071 00000+0 00000+0 0 9994 2 39199 34.4319 72.1753 0022532 183.7628 174.3319 1.00276440 41895
UTC large
Height (km)
Speed (km/s)
/
Latitude / Longitude
Inclination (degrees)
Orbital Period (minutes)
Azimuth
Elevation
Range (km)
Doppler Factor

Next 0 passes for location: London (51.5072 / 0.1276)

Sorry there are no passes over London.